Regional Weather Roundup
Issued by NWS

Home | Current Version | Previous Version | Text Only | Print | Product List | Glossary On
Versions: 1 2 3 4 5 6 7 8 9 10 11 12 13 14 15 16 17 18 19 20 21 22 23 24 25 26 27 28 29 30 31 32 33 34 35 36 37 38 39 40 41 42 43 44 45 46 47 48 49 50
000
ASUS44 KFWD 280315
RWRTX
NORTH TEXAS HOURLY WEATHER ROUNDUP
NATIONAL WEATHER SERVICE FORT WORTH TX
1000 PM CDT WED AUG 27 2014

NOTE: "FAIR" INDICATES FEW OR NO CLOUDS BELOW 12,000 FEET WITH NO
SIGNIFICANT WEATHER AND/OR OBSTRUCTIONS TO VISIBILITY.

TXZ118-119-280400-
DALLAS/FORT WORTH METROPLEX

CITY           SKY/WX    TMP DP  RH WIND       PRES   REMARKS
DFW AIRPORT    CLEAR     83  63  50 SE8       29.99R
DALLAS LOVE    CLEAR     86  62  44 SE9       29.99R
FTW MEACHAM    CLEAR     88  61  40 SE9       29.98R
DAL-EXECUTIVE  CLEAR     83  58  42 SE6       29.99R
FTW-ALLIANCE   PTCLDY    84  61  45 SE7       29.98R
FTW-NAS-JRB    CLEAR     90  57  32 SE10      30.02R
FTW-SPINKS     CLEAR     80  61  51 SE3       30.01R
ARLINGTON      CLEAR     83  61  47 SE3       29.99R
GRAND PRAIRIE  CLEAR     85  58  39 E3        30.00R
ADDISON        CLEAR     86  61  42 E7        30.00R
MESQUITE       CLEAR     80  60  50 CALM      29.99
LANCASTER      CLEAR     78  56  46 CALM      30.00R
$$

TXZ091>094-102>105-117-120-121-131>134-280400-
NORTH CENTRAL TEXAS

CITY           SKY/WX    TMP DP  RH WIND       PRES   REMARKS
SHRMAN/DENISON CLEAR     83  62  48 E7        30.02R
GAINESVILLE    CLEAR     80  65  61 CALM      30.03R
BOWIE          CLEAR     82  65  57 CALM      30.02R
BRIDGEPORT     CLEAR     84  61  46 SE5       30.02R
DECATUR        CLEAR     82  64  53 SE7       30.02R
DENTON         CLEAR     85  62  46 SE9       29.98R
MCKINNEY       CLEAR     81  64  56 CALM      30.00R
GREENVILLE     CLEAR     77  63  61 E3        30.00R
ROCKWALL       CLEAR     82  64  54 SE3       29.98R
TERRELL        CLEAR     82  60  47 E5        29.99R
WAXAHACHIE     CLEAR     80  56  42 E3        30.00S
CLEBURNE       CLEAR     84  61  45 E9        30.01R
GRANBURY       CLEAR     87  63  44 E7        30.00R
$$

TXZ083>090-098>101-113>116-127>130-139>142-154-155-280400-
WESTERN NORTH TEXAS

CITY           SKY/WX    TMP DP  RH WIND       PRES   REMARKS
WICHITA FALLS  CLEAR     85  64  49 SE10      29.99R
WF-KICKAPOO    CLEAR     86  61  43 E7        30.01R
VERNON         PTCLDY    89  58  34 SE12      29.99S
ABILENE        CLEAR     87  61  41 SE12      30.02R
ABILENE-DYESS  CLEAR     86  64  46 SE9       30.01R
BRECKENRIDGE   CLEAR     88  59  37 SE12      30.00R
GRAHAM         CLEAR     85  62  44 E6        29.99R
MINERAL WELLS  CLEAR     83  64  52 SE6       29.99R
STEPHENVILLE   CLEAR     83  60  46 E6        30.04R
COMANCHE         N/A     82  60  47 SE5       30.02R
BROWNWOOD      CLOUDY    84  61  45 E7        30.01R
COLEMAN        CLEAR     84  60  44 SE7       30.02R
BRADY          CLEAR     82  61  47 E5        30.02R
$$

TXZ143>147-156>162-174-175-280400-
CENTRAL TEXAS

CITY           SKY/WX    TMP DP  RH WIND       PRES   REMARKS
WACO           CLEAR     82  57  42 E3        29.97R
WACO-TSTC      CLEAR     81  57  44 SE7       29.97S
WACO-MCGREGOR  CLEAR     82  54  36 CALM      29.99R
HILLSBORO      CLEAR     80  57  44 E6        29.99R
CORSICANA      CLEAR     81  60  48 E5        30.00R
MEXIA          PTCLDY    80  62  54 CALM      29.98R
HEARNE           N/A     84  66  55 CALM      29.97R
CAMERON        CLEAR     84  62  47 CALM      29.96S
TEMPLE         CLEAR     81  54  39 E8        29.98R
KILLEEN        CLEAR     84  57  39 E8        29.99R
KILLEEN-SKYLRK CLEAR     82  55  39 E5        29.99R
FORT HOOD      CLEAR     85  56  37 E3        29.99R
GATESVILLE     CLEAR     82  61  47 CALM      30.01R
HAMILTON       CLEAR     82  59  44 S7        30.02R
LAMPASAS       CLEAR     82  61  47 E3        30.00R
$$

TXZ095>097-106>112-122>126-135>138-148>153-164>167-280400-
EAST TEXAS

CITY           SKY/WX    TMP DP  RH WIND       PRES   REMARKS
PARIS          CLEAR     79  63  57 E6        30.02R
SULPHUR SPRNGS CLEAR     79  65  60 CALM      30.03R
CLARKSVILLE    CLEAR     78  67  69 CALM      30.01R
MOUNT PLEASANT CLEAR     79  64  60 CALM      30.02R
GILMER         CLEAR     77  66  69 CALM      30.02R
MINEOLA        CLEAR     75  66  73 CALM      30.01R
TYLER          CLEAR     79  62  56 CALM      30.00R
LONGVIEW       CLEAR     78  66  66 SE6       29.99R
MARSHALL       PTCLDY    78  69  73 CALM      30.02R
ATHENS         CLEAR     73  64  73 CALM      29.99R
PALESTINE      CLEAR     80  67  63 CALM      30.00R
JACKSONVILLE   CLEAR     82  64  54 E5        30.02R
HENDERSON      CLEAR     76  68  77 CALM      30.00S
NACOGDOCHES    CLEAR     75  70  83 CALM      29.99R
LUFKIN         CLEAR     82  72  71 E5        29.98R
$$

SUPPLEMENTAL OBSERVATIONS (CENTRAL)

CITY           SKY/WX    TMP DP  RH WIND       PRES   REMARKS
LAKE TEXOMA      N/A     81  66  61 E2          N/A
CADDO GRASSLND   N/A     81  66  61 E2          N/A
PAT MAYSE LAKE   N/A     82  66  57 E5          N/A
GREENVILLE       N/A     81  63  54 SE3         N/A
CEDAR HILL       N/A     81  59  47 SE2         N/A
ATHENS           N/A     79  68  69 CALM        N/A
PALESTINE        N/A     75  68  78 CALM        N/A
LAKE LIMESTONE   N/A     81  64  57 NE3         N/A
MCGREGOR         N/A     82  55  39 SE3         N/A
TEMPLE           N/A     81  54  39 E7          N/A
$$

SUPPLEMENTAL OBSERVATIONS (WEST)

CITY           SKY/WX    TMP DP  RH WIND       PRES   REMARKS
MILLERS CREEK    N/A     88  57  35 SE10        N/A
POSSUM KINGDOM   N/A     86  61  42 SE8         N/A
LBJ GRASSLAND    N/A     82  63  51 E5          N/A
GRANBURY         N/A     86  61  42 SE7         N/A
COMANCHE         N/A     81  59  47 SE6         N/A
HAMBY            N/A     86  59  39 SE9         N/A
IVIE RESERVOIR   N/A     84  59  42 E7          N/A
COLORADO BEND    N/A     82  55  39 SE6         N/A
$$

SUPPLEMENTAL OBSERVATIONS (EAST)

CITY           SKY/WX    TMP DP  RH WIND       PRES   REMARKS
CLARKSVILLE      N/A     79  68  69 E1          N/A
TEXARKANA        N/A     72  68  88 CALM        N/A
LINDEN           N/A     75  64  69 CALM        N/A
GILMER           N/A     75  64  69 CALM        N/A
HENDERSON        N/A     75  66  73 CALM        N/A
LUFKIN           N/A     79  73  83 MISG        N/A
N SABINE NF      N/A     75  70  83 MISG        N/A
S SABINE NF      N/A     77  73  88 SW1         N/A
$$

SUPPLEMENTAL OBSERVATIONS ARE A COLLECTION OF AUTOMATED INSTRUMENTS
THAT ARE MAINTAINED BY A VARIETY OF FEDERAL AND STATE AGENCIES.
CERTAIN ELEMENTS...SUCH AS HUMIDITY VALUES AND SUSTAINED WIND
SPEEDS...MAY BE APPROXIMATED.




USA.gov is the U.S. government's official web portal to all federal, state and local government web resources and services.